STARLINK-1855 (47142 NORAD) Tracking and Keplerian Element Data

This shows tracking and keplerian element data for the satellite.

Feedback or suggestion? Click here.




ElementValue
Catalog47142
NameSTARLINK-1855
Epoch Orbit1589
Epoch Day62.91667824
Epoch Year2021
RAAN254.7693
Inclination53.0539
Eccentricity0.000304
Argument of Perigee94.3086
Mean Anonmoly28.627
Mean Motion15.06384719
Decay Rate0.00025208
L11 47142U 20088W 21062.91667824 .00025208 00000-0 17058-2 0 9990
L22 47142 53.0539 254.7693 0003040 94.3086 28.6270 15.06384719 15890

Live tracking and technical data element details for STARLINK-1855 (NORAD 47142). STARLINK-1855 can be tracked NOW for your location showing map with azimuth and elevation plus other details from your city location.

Track the satellite on the map from your city or location and see movement details for azimuth, elevation, latitude, longitude, range, height, and movement on the map or in text.







IsCatalogInMostPopularTable: catalog: 47142, numindb: 37
Update: records affected: 1



GetName: 47142 STARLINK-1855

Hit Count: updated at: Fri, 05 Mar 2021 06:10:51 GMT